Location: Unspecified
(0.0000°N, 0.0000°E)
Time: 00:45:39
(UTC+00:00)

A-11 Canister half - Pass Details

Date: 08 February 2023
Orbit: 1526 x 1682 km, 47.3° (Epoch: 29 March)

Event Time Altitude Azimuth Distance (km) Brightness Sun altitude
Rises 00:42:47 0° 211° (SSW) 4,826 - -73.3°
Reaches altitude 10° 00:46:02 10° 207° (SSW) 3,817 - -72.9°
Maximum altitude 00:55:28 58° 130° (SE) 1,788 - -71.7°
Drops below altitude 10° 01:04:35 10° 53° (NE) 3,704 - -70.4°
Sets 01:07:40 0° 49° (NE) 4,674 - -69.9°
